DELTA 1 R/B, 3346

Orbit data source: Space-Track

DELTA 1 R/B, 3346 is space debris in SSO originally from a launch on Fri, 16 Aug 1968 UTC launched from the Air Force Western Test Range (AFWTR). Debris objects in space refer to the collection of defunct objects orbiting the Earth. Examples of debris include non-operational satellites, rocket bodies, and fragments generated from explosions, collisions, or faulty payload assembly.

Loading next visibility...
Identifier
3346, 1968-069B
Orbit
SSO
Country
Flag of USUS
Related business
Manufacturer
Aerojet
Mission
Spacecraft
Bus & Motor
ABLESTAR, Unknown motor
Mass
~785 kg wet, ~785 kg dry
Launch date (UTC)
1968-08-16 (58 years ago)
Launch vehicle
Unknown
Launch site
Air Force Western Test Range (AFWTR)
Object type
Payload
Rocket body
Debris
Shape & HBR
Unknown
Radar Cross Section
Large (>1 m²)

Expand to show TLE details & history
Last TLE update: 6 hours ago

TLE from 6 hours ago
0 DELTA 1 R/B
1  3346U 68069B   26138.82392105 -.00000042  00000-0  10715-4 0  9990
2  3346 101.5360 104.6831 0024364  55.9277 311.0802 12.54345010643958
Epoch: 2026-05-18T19:46Z
TLE epoch observation values (Epoch: 2026-05-18T19:46:26.778Z)
Latitude
6.59121°
Longitude
-69.77986°
Altitude
1,435.847 km
Speed
7.15 km/s
True Right ascension
06h 53m 21s
True Declination
6° 33' 20"
Sunlit
Object was in daylight at epoch
Visualization orbit readout
Latitude
Unknown
Longitude
Unknown
Altitude
Unknown
Speed
Unknown
Apparent Right ascension
Unknown
Apparent Declination
Unknown
Sunlit
N/A
Visualization observer readout
Local Sidereal Time
10:06:45
Azimuth
Unknown
Elevation
Unknown
Doppler factor
Unknown
Orbital elements
Apogee altitude
1,462.96 km
Perigee altitude
1,424.844 km
Semi-major axis
7,822.039 km
Eccentricity
0.00244
Inclination
101.536°
RAAN
104.6831°
Arg. of periapsis
55.9277°
True anomaly
310.86933°
Mean anomaly
311.0802°
Eccentric anomaly
310.97481°
Mean motion
3.13735 °/min
Orbital period
114.75 mins
BSTAR
0.000010715
Loading maneuver chart data...
Computing Atmospheric mass density...
Loading historical data...
Loading historical data...
Loading historical data...
Loading historical data...
Loading historical data...
Loading historical data...
Loading historical data...

Documentation

Showing up to 5 results
|